Year,Month,Day,Hour,Minute,Value (Times are PST for temperature in C)
2017,08,22,00,00,22.50
2017,08,22,00,01,22.50
2017,08,22,00,02,22.50
2017,08,22,00,03,22.60
2017,08,22,00,04,22.60
2017,08,22,00,05,22.60
2017,08,22,00,06,22.60
2017,08,22,00,07,22.70
2017,08,22,00,08,22.70
2017,08,22,00,09,22.70
2017,08,22,00,10,22.70
2017,08,22,00,11,22.70
2017,08,22,00,12,22.70
2017,08,22,00,13,22.70
2017,08,22,00,14,22.70
2017,08,22,00,15,22.70
2017,08,22,00,16,22.60
2017,08,22,00,17,22.60
2017,08,22,00,18,22.60
2017,08,22,00,19,22.60
2017,08,22,00,20,22.60
2017,08,22,00,21,22.60
2017,08,22,00,22,22.60
2017,08,22,00,23,22.60
2017,08,22,00,24,22.50
2017,08,22,00,25,22.50
2017,08,22,00,26,22.50
2017,08,22,00,27,22.40
2017,08,22,00,28,22.40
2017,08,22,00,29,22.40
2017,08,22,00,30,22.40
2017,08,22,00,31,22.30
2017,08,22,00,32,22.30
2017,08,22,00,33,22.30
2017,08,22,00,34,22.20
2017,08,22,00,35,22.20
2017,08,22,00,36,22.20
2017,08,22,00,37,22.20
2017,08,22,00,38,22.20
2017,08,22,00,39,22.20
2017,08,22,00,40,22.20
2017,08,22,00,41,22.10
2017,08,22,00,42,22.10
2017,08,22,00,43,22.10
2017,08,22,00,44,22.10
2017,08,22,00,45,22.10
2017,08,22,00,46,22.00
2017,08,22,00,47,22.00
2017,08,22,00,48,22.00
2017,08,22,00,49,21.90
2017,08,22,00,50,21.90
2017,08,22,00,51,21.90
2017,08,22,00,52,21.80
2017,08,22,00,53,21.80
2017,08,22,00,54,21.80
2017,08,22,00,55,21.80
2017,08,22,00,56,21.80
2017,08,22,00,57,21.80
2017,08,22,00,58,21.70
2017,08,22,00,59,21.70
2017,08,22,01,00,21.70
2017,08,22,01,01,21.70
2017,08,22,01,02,21.70
2017,08,22,01,03,21.70
2017,08,22,01,04,21.60
2017,08,22,01,05,21.60
2017,08,22,01,06,21.60
2017,08,22,01,07,21.60
2017,08,22,01,08,21.60
2017,08,22,01,09,21.60
2017,08,22,01,10,21.60
2017,08,22,01,11,21.60
2017,08,22,01,12,21.50
2017,08,22,01,13,21.50
2017,08,22,01,14,21.50
2017,08,22,01,15,21.50
2017,08,22,01,16,21.50
2017,08,22,01,17,21.50
2017,08,22,01,18,21.50
2017,08,22,01,19,21.60
2017,08,22,01,20,21.60
2017,08,22,01,21,21.60
2017,08,22,01,22,21.60
2017,08,22,01,23,21.60
2017,08,22,01,24,21.60
2017,08,22,01,25,21.60
2017,08,22,01,26,21.60
2017,08,22,01,27,21.60
2017,08,22,01,28,21.70
2017,08,22,01,29,21.70
2017,08,22,01,30,21.70
2017,08,22,01,31,21.70
2017,08,22,01,32,21.70
2017,08,22,01,33,21.60
2017,08,22,01,34,21.60
2017,08,22,01,35,21.60
2017,08,22,01,36,21.60
2017,08,22,01,37,21.50
2017,08,22,01,38,21.50
2017,08,22,01,39,21.40
2017,08,22,01,40,21.40
2017,08,22,01,41,21.40
2017,08,22,01,42,21.30
2017,08,22,01,43,21.30
2017,08,22,01,44,21.30
2017,08,22,01,45,21.20
2017,08,22,01,46,21.20
2017,08,22,01,47,21.20
2017,08,22,01,48,21.20
2017,08,22,01,49,21.30
2017,08,22,01,50,21.30
2017,08,22,01,51,21.30
2017,08,22,01,52,21.40
2017,08,22,01,53,21.40
2017,08,22,01,54,21.40
2017,08,22,01,55,21.40
2017,08,22,01,56,21.40
2017,08,22,01,57,21.40
2017,08,22,01,58,21.50
2017,08,22,01,59,21.40
2017,08,22,02,00,21.40
2017,08,22,02,01,21.40
2017,08,22,02,02,21.40
2017,08,22,02,03,21.40
2017,08,22,02,04,21.40
2017,08,22,02,05,21.40
2017,08,22,02,06,21.40
2017,08,22,02,07,21.50
2017,08,22,02,08,21.40
2017,08,22,02,09,21.40
2017,08,22,02,10,21.50
2017,08,22,02,11,21.40
2017,08,22,02,12,21.50
2017,08,22,02,13,21.50
2017,08,22,02,14,21.50
2017,08,22,02,15,21.50
2017,08,22,02,16,21.50
2017,08,22,02,17,21.40
2017,08,22,02,18,21.40
2017,08,22,02,19,21.40
2017,08,22,02,20,21.40
2017,08,22,02,21,21.40
2017,08,22,02,22,21.40
2017,08,22,02,23,21.30
2017,08,22,02,24,21.30
2017,08,22,02,25,21.30
2017,08,22,02,26,21.30
2017,08,22,02,27,21.20
2017,08,22,02,28,21.20
2017,08,22,02,29,21.20
2017,08,22,02,30,21.20
2017,08,22,02,31,21.20
2017,08,22,02,32,21.20
2017,08,22,02,33,21.10
2017,08,22,02,34,21.10
2017,08,22,02,35,21.10
2017,08,22,02,36,21.10
2017,08,22,02,37,21.10
2017,08,22,02,38,21.00
2017,08,22,02,39,21.00
2017,08,22,02,40,21.00
2017,08,22,02,41,20.90
2017,08,22,02,42,20.90
2017,08,22,02,43,20.80
2017,08,22,02,44,20.80
2017,08,22,02,45,20.80
2017,08,22,02,46,20.70
2017,08,22,02,47,20.70
2017,08,22,02,48,20.70
2017,08,22,02,49,20.70
2017,08,22,02,50,20.70
2017,08,22,02,51,20.70
2017,08,22,02,52,20.70
2017,08,22,02,53,20.70
2017,08,22,02,54,20.70
2017,08,22,02,55,20.70
2017,08,22,02,56,20.80
2017,08,22,02,57,20.80
2017,08,22,02,58,20.80
2017,08,22,02,59,20.80
2017,08,22,03,00,20.90
2017,08,22,03,01,20.90
2017,08,22,03,02,20.90
2017,08,22,03,03,21.00
2017,08,22,03,04,21.10
2017,08,22,03,05,21.10
2017,08,22,03,06,21.20
2017,08,22,03,07,21.20
2017,08,22,03,08,21.20
2017,08,22,03,09,21.30
2017,08,22,03,10,21.30
2017,08,22,03,11,21.30
2017,08,22,03,12,21.40
2017,08,22,03,13,21.40
2017,08,22,03,14,21.40
2017,08,22,03,15,21.40
2017,08,22,03,16,21.40
2017,08,22,03,17,21.40
2017,08,22,03,18,21.50
2017,08,22,03,19,21.50
2017,08,22,03,20,21.50
2017,08,22,03,21,21.50
2017,08,22,03,22,21.50
2017,08,22,03,23,21.50
2017,08,22,03,24,21.50
2017,08,22,03,25,21.50
2017,08,22,03,26,21.50
2017,08,22,03,27,21.50
2017,08,22,03,28,21.60
2017,08,22,03,29,21.60
2017,08,22,03,30,21.50
2017,08,22,03,31,21.60
2017,08,22,03,32,21.60
2017,08,22,03,33,21.60
2017,08,22,03,34,21.60
2017,08,22,03,35,21.50
2017,08,22,03,36,21.50
2017,08,22,03,37,21.50
2017,08,22,03,38,21.50
2017,08,22,03,39,21.50
2017,08,22,03,40,21.50
2017,08,22,03,41,21.50
2017,08,22,03,42,21.40
2017,08,22,03,43,21.40
2017,08,22,03,44,21.40
2017,08,22,03,45,21.40
2017,08,22,03,46,21.40
2017,08,22,03,47,21.30
2017,08,22,03,48,21.30
2017,08,22,03,49,21.30
2017,08,22,03,50,21.30
2017,08,22,03,51,21.30
2017,08,22,03,52,21.20
2017,08,22,03,53,21.20
2017,08,22,03,54,21.20
2017,08,22,03,55,21.20
2017,08,22,03,56,21.20
2017,08,22,03,57,21.20
2017,08,22,03,58,21.20
2017,08,22,03,59,21.20
2017,08,22,04,00,21.10
2017,08,22,04,01,21.10
2017,08,22,04,02,21.10
2017,08,22,04,03,21.10
2017,08,22,04,04,21.10
2017,08,22,04,05,21.10
2017,08,22,04,06,21.10
2017,08,22,04,07,21.10
2017,08,22,04,08,21.10
2017,08,22,04,09,21.10
2017,08,22,04,10,21.10
2017,08,22,04,11,21.10
2017,08,22,04,12,21.10
2017,08,22,04,13,21.10
2017,08,22,04,14,21.00
2017,08,22,04,15,21.00
2017,08,22,04,16,21.00
2017,08,22,04,17,21.00
2017,08,22,04,18,21.00
2017,08,22,04,19,20.90
2017,08,22,04,20,20.90
2017,08,22,04,21,20.90
2017,08,22,04,22,20.90
2017,08,22,04,23,20.90
2017,08,22,04,24,20.80
2017,08,22,04,25,20.80
2017,08,22,04,26,20.80
2017,08,22,04,27,20.80
2017,08,22,04,28,20.80
2017,08,22,04,29,20.80
2017,08,22,04,30,20.80
2017,08,22,04,31,20.80
2017,08,22,04,32,20.80
2017,08,22,04,33,20.80
2017,08,22,04,34,20.80
2017,08,22,04,35,20.80
2017,08,22,04,36,20.80
2017,08,22,04,37,20.80
2017,08,22,04,38,20.80
2017,08,22,04,39,20.80
2017,08,22,04,40,20.90
2017,08,22,04,41,20.90
2017,08,22,04,42,20.90
2017,08,22,04,43,20.90
2017,08,22,04,44,20.90
2017,08,22,04,45,20.90
2017,08,22,04,46,20.90
2017,08,22,04,47,20.90
2017,08,22,04,48,20.90
2017,08,22,04,49,20.90
2017,08,22,04,50,20.90
2017,08,22,04,51,20.90
2017,08,22,04,52,20.90
2017,08,22,04,53,20.90
2017,08,22,04,54,20.90
2017,08,22,04,55,20.90
2017,08,22,04,56,20.90
2017,08,22,04,57,20.90
2017,08,22,04,58,21.00
2017,08,22,04,59,21.00
2017,08,22,05,00,21.00
2017,08,22,05,01,21.00
2017,08,22,05,02,21.00
2017,08,22,05,03,21.00
2017,08,22,05,04,21.00
2017,08,22,05,05,21.00
2017,08,22,05,06,21.00
2017,08,22,05,07,21.00
2017,08,22,05,08,21.00
2017,08,22,05,09,21.00
2017,08,22,05,10,20.90
2017,08,22,05,11,20.90
2017,08,22,05,12,20.90
2017,08,22,05,13,20.90
2017,08,22,05,14,20.80
2017,08,22,05,15,20.80
2017,08,22,05,16,20.80
2017,08,22,05,17,20.80
2017,08,22,05,18,20.80
2017,08,22,05,19,20.70
2017,08,22,05,20,20.70
2017,08,22,05,21,20.70
2017,08,22,05,22,20.70
2017,08,22,05,23,20.70
2017,08,22,05,24,20.70
2017,08,22,05,25,20.70
2017,08,22,05,26,20.60
2017,08,22,05,27,20.60
2017,08,22,05,28,20.60
2017,08,22,05,29,20.60
2017,08,22,05,30,20.60
2017,08,22,05,31,20.60
2017,08,22,05,32,20.60
2017,08,22,05,33,20.60
2017,08,22,05,34,20.50
2017,08,22,05,35,20.50
2017,08,22,05,36,20.50
2017,08,22,05,37,20.50
2017,08,22,05,38,20.50
2017,08,22,05,39,20.40
2017,08,22,05,40,20.40
2017,08,22,05,41,20.40
2017,08,22,05,42,20.40
2017,08,22,05,43,20.40
2017,08,22,05,44,20.40
2017,08,22,05,45,20.40
2017,08,22,05,46,20.40
2017,08,22,05,47,20.40
2017,08,22,05,48,20.40
2017,08,22,05,49,20.40
2017,08,22,05,50,20.40
2017,08,22,05,51,20.40
2017,08,22,05,52,20.40
2017,08,22,05,53,20.40
2017,08,22,05,54,20.40
2017,08,22,05,55,20.40
2017,08,22,05,56,20.40
2017,08,22,05,57,20.40
2017,08,22,05,58,20.30
2017,08,22,05,59,20.30
2017,08,22,06,00,20.30
2017,08,22,06,01,20.30
2017,08,22,06,02,20.30
2017,08,22,06,03,20.30
2017,08,22,06,04,20.30
2017,08,22,06,05,20.20
2017,08,22,06,06,20.20
2017,08,22,06,07,20.20
2017,08,22,06,08,20.20
2017,08,22,06,09,20.10
2017,08,22,06,10,20.10
2017,08,22,06,11,20.10
2017,08,22,06,12,20.00
2017,08,22,06,13,20.00
2017,08,22,06,14,20.00
2017,08,22,06,15,19.90
2017,08,22,06,16,19.90
2017,08,22,06,17,19.90
2017,08,22,06,18,19.90
2017,08,22,06,19,19.90
2017,08,22,06,20,19.80
2017,08,22,06,21,19.80
2017,08,22,06,22,19.80
2017,08,22,06,23,19.80
2017,08,22,06,24,19.80
2017,08,22,06,25,19.80
2017,08,22,06,26,19.80
2017,08,22,06,27,19.80
2017,08,22,06,28,19.80
2017,08,22,06,29,19.80
2017,08,22,06,30,19.80
2017,08,22,06,31,19.80
2017,08,22,06,32,19.80
2017,08,22,06,33,19.80
2017,08,22,06,34,19.80
2017,08,22,06,35,19.90
2017,08,22,06,36,19.90
2017,08,22,06,37,19.90
2017,08,22,06,38,19.90
2017,08,22,06,39,19.90
2017,08,22,06,40,19.90
2017,08,22,06,41,19.90
2017,08,22,06,42,19.90
2017,08,22,06,43,19.90
2017,08,22,06,44,19.90
2017,08,22,06,45,20.00
2017,08,22,06,46,20.00
2017,08,22,06,47,20.00
2017,08,22,06,48,20.10
2017,08,22,06,49,20.10
2017,08,22,06,50,20.10
2017,08,22,06,51,20.20
2017,08,22,06,52,20.20
2017,08,22,06,53,20.20
2017,08,22,06,54,20.20
2017,08,22,06,55,20.30
2017,08,22,06,56,20.30
2017,08,22,06,57,20.30
2017,08,22,06,58,20.30
2017,08,22,06,59,20.40
2017,08,22,07,00,20.40
2017,08,22,07,01,20.40
2017,08,22,07,02,20.40
2017,08,22,07,03,20.50
2017,08,22,07,04,20.50
2017,08,22,07,05,20.60
2017,08,22,07,06,20.60
2017,08,22,07,07,20.70
2017,08,22,07,08,20.80
2017,08,22,07,09,20.90
2017,08,22,07,10,20.90
2017,08,22,07,11,21.00
2017,08,22,07,12,21.10
2017,08,22,07,13,21.20
2017,08,22,07,14,21.30
2017,08,22,07,15,21.40
2017,08,22,07,16,21.40
2017,08,22,07,17,21.50
2017,08,22,07,18,21.50
2017,08,22,07,19,21.50
2017,08,22,07,20,21.50
2017,08,22,07,21,21.50
2017,08,22,07,22,21.50
2017,08,22,07,23,21.50
2017,08,22,07,24,21.50
2017,08,22,07,25,21.50
2017,08,22,07,26,21.40
2017,08,22,07,27,21.40
2017,08,22,07,28,21.40
2017,08,22,07,29,21.40
2017,08,22,07,30,21.40
2017,08,22,07,31,21.50
2017,08,22,07,32,21.50
2017,08,22,07,33,21.50
2017,08,22,07,34,21.50
2017,08,22,07,35,21.60
2017,08,22,07,36,21.60
2017,08,22,07,37,21.60
2017,08,22,07,38,21.60
2017,08,22,07,39,21.60
2017,08,22,07,40,21.70
2017,08,22,07,41,21.70
2017,08,22,07,42,21.60
2017,08,22,07,43,21.60
2017,08,22,07,44,21.50
2017,08,22,07,45,21.50
2017,08,22,07,46,21.50
2017,08,22,07,47,21.40
2017,08,22,07,48,21.40
2017,08,22,07,49,21.40
2017,08,22,07,50,21.40
2017,08,22,07,51,21.40
2017,08,22,07,52,21.40
2017,08,22,07,53,21.40
2017,08,22,07,54,21.40
2017,08,22,07,55,21.40
2017,08,22,07,56,21.40
2017,08,22,07,57,21.30
2017,08,22,07,58,21.30
2017,08,22,07,59,21.30
2017,08,22,08,00,21.30
2017,08,22,08,01,21.30
2017,08,22,08,02,21.20
2017,08,22,08,03,21.20
2017,08,22,08,04,21.20
2017,08,22,08,05,21.20
2017,08,22,08,06,21.20
2017,08,22,08,07,21.20
2017,08,22,08,08,21.20
2017,08,22,08,09,21.20
2017,08,22,08,10,21.20
2017,08,22,08,11,21.10
2017,08,22,08,12,21.10
2017,08,22,08,13,21.10
2017,08,22,08,14,21.10
2017,08,22,08,15,21.10
2017,08,22,08,16,21.20
2017,08,22,08,17,21.20
2017,08,22,08,18,21.20
2017,08,22,08,19,21.30
2017,08,22,08,20,21.30
2017,08,22,08,21,21.30
2017,08,22,08,22,21.30
2017,08,22,08,23,21.30
2017,08,22,08,24,21.30
2017,08,22,08,25,21.30
2017,08,22,08,26,21.30
2017,08,22,08,27,21.30
2017,08,22,08,28,21.30
2017,08,22,08,29,21.30
2017,08,22,08,30,21.40
2017,08,22,08,31,21.40
2017,08,22,08,32,21.40
2017,08,22,08,33,21.40
2017,08,22,08,34,21.30
2017,08,22,08,35,21.30
2017,08,22,08,36,21.20
2017,08,22,08,37,21.20
2017,08,22,08,38,21.20
2017,08,22,08,39,21.10
2017,08,22,08,40,21.10
2017,08,22,08,41,21.00
2017,08,22,08,42,21.00
2017,08,22,08,43,21.00
2017,08,22,08,44,21.00
2017,08,22,08,45,21.00
2017,08,22,08,46,20.90
2017,08,22,08,47,20.90
2017,08,22,08,48,20.80
2017,08,22,08,49,20.80
2017,08,22,08,50,20.80
2017,08,22,08,51,20.80
2017,08,22,08,52,20.80
2017,08,22,08,53,20.80
2017,08,22,08,54,20.80
2017,08,22,08,55,20.80
2017,08,22,08,56,20.80
2017,08,22,08,57,20.80
2017,08,22,08,58,20.80
2017,08,22,08,59,20.80
2017,08,22,09,00,20.80
2017,08,22,09,01,20.80
2017,08,22,09,02,20.80
2017,08,22,09,03,20.80
2017,08,22,09,04,20.80
2017,08,22,09,05,20.90
2017,08,22,09,06,20.90
2017,08,22,09,07,20.90
2017,08,22,09,08,21.00
2017,08,22,09,09,21.00
2017,08,22,09,10,21.00
2017,08,22,09,11,21.00
2017,08,22,09,12,21.00
2017,08,22,09,13,21.10
2017,08,22,09,14,21.10
2017,08,22,09,15,21.10
2017,08,22,09,16,21.10
2017,08,22,09,17,21.20
2017,08,22,09,18,21.20
2017,08,22,09,19,21.20
2017,08,22,09,20,21.20
2017,08,22,09,21,21.20
2017,08,22,09,22,21.20
2017,08,22,09,23,21.10
2017,08,22,09,24,21.10
2017,08,22,09,25,21.00
2017,08,22,09,26,21.00
2017,08,22,09,27,20.90
2017,08,22,09,28,20.90
2017,08,22,09,29,21.00
2017,08,22,09,30,21.00
2017,08,22,09,31,21.10
2017,08,22,09,32,21.10
2017,08,22,09,33,21.20
2017,08,22,09,34,21.30
2017,08,22,09,35,21.30
2017,08,22,09,36,21.30
2017,08,22,09,37,21.20
2017,08,22,09,38,21.30
2017,08,22,09,39,21.30
2017,08,22,09,40,21.20
2017,08,22,09,41,21.20
2017,08,22,09,42,21.20
2017,08,22,09,43,21.20
2017,08,22,09,44,21.30
2017,08,22,09,45,21.30
2017,08,22,09,46,21.30
2017,08,22,09,47,21.30
2017,08,22,09,48,21.30
2017,08,22,09,49,21.30
2017,08,22,09,50,21.40
2017,08,22,09,51,21.40
2017,08,22,09,52,21.40
2017,08,22,09,53,21.40
2017,08,22,09,54,21.40
2017,08,22,09,55,21.40
2017,08,22,09,56,21.40
2017,08,22,09,57,21.40
2017,08,22,09,58,21.30
2017,08,22,09,59,21.30
2017,08,22,10,00,21.30
2017,08,22,10,01,21.30
2017,08,22,10,02,21.30
2017,08,22,10,03,21.30
2017,08,22,10,04,21.40
2017,08,22,10,05,21.40
2017,08,22,10,06,21.50
2017,08,22,10,07,21.50
2017,08,22,10,08,21.60
2017,08,22,10,09,21.70
2017,08,22,10,10,21.70
2017,08,22,10,11,21.60
2017,08,22,10,12,21.70
2017,08,22,10,13,21.70
2017,08,22,10,14,21.60
2017,08,22,10,15,21.60
2017,08,22,10,16,21.60
2017,08,22,10,17,21.60
2017,08,22,10,18,21.70
2017,08,22,10,19,21.60
2017,08,22,10,20,21.60
2017,08,22,10,21,21.60
2017,08,22,10,22,21.60
2017,08,22,10,23,21.60
2017,08,22,10,24,21.60
2017,08,22,10,25,21.60
2017,08,22,10,26,21.60
2017,08,22,10,27,21.60
2017,08,22,10,28,21.60
2017,08,22,10,29,21.60
2017,08,22,10,30,21.60
2017,08,22,10,31,21.60
2017,08,22,10,32,21.50
2017,08,22,10,33,21.50
2017,08,22,10,34,21.40
2017,08,22,10,35,21.40
2017,08,22,10,36,21.40
2017,08,22,10,37,21.40
2017,08,22,10,38,21.40
2017,08,22,10,39,21.50
2017,08,22,10,40,21.40
2017,08,22,10,41,21.40
2017,08,22,10,42,21.40
2017,08,22,10,43,21.40
2017,08,22,10,44,21.40
2017,08,22,10,45,21.40
2017,08,22,10,46,21.40
2017,08,22,10,47,21.40
2017,08,22,10,48,21.40
2017,08,22,10,49,21.40
2017,08,22,10,50,21.40
2017,08,22,10,51,21.40
2017,08,22,10,52,21.40
2017,08,22,10,53,21.40
2017,08,22,10,54,21.50
2017,08,22,10,55,21.50
2017,08,22,10,56,21.60
2017,08,22,10,57,21.70
2017,08,22,10,58,21.70
2017,08,22,10,59,21.80
2017,08,22,11,00,21.80
2017,08,22,11,01,21.80
2017,08,22,11,02,21.80
2017,08,22,11,03,21.80
2017,08,22,11,04,21.80
2017,08,22,11,05,21.70
2017,08,22,11,06,21.70
2017,08,22,11,07,21.60
2017,08,22,11,08,21.60
2017,08,22,11,09,21.50
2017,08,22,11,10,21.40
2017,08,22,11,11,21.40
2017,08,22,11,12,21.30
2017,08,22,11,13,21.30
2017,08,22,11,14,21.30
2017,08,22,11,15,21.30
2017,08,22,11,16,21.30
2017,08,22,11,17,21.30
2017,08,22,11,18,21.30
2017,08,22,11,19,21.30
2017,08,22,11,20,21.40
2017,08,22,11,21,21.40
2017,08,22,11,22,21.40
2017,08,22,11,23,21.40
2017,08,22,11,24,21.40
2017,08,22,11,25,21.40
2017,08,22,11,26,21.40
2017,08,22,11,27,21.50
2017,08,22,11,28,21.60
2017,08,22,11,29,21.60
2017,08,22,11,30,21.60
2017,08,22,11,31,21.60
2017,08,22,11,32,21.60
2017,08,22,11,33,21.60
2017,08,22,11,34,21.60
2017,08,22,11,35,21.70
2017,08,22,11,36,21.70
2017,08,22,11,37,21.60
2017,08,22,11,38,21.60
2017,08,22,11,39,21.70
2017,08,22,11,40,21.60
2017,08,22,11,41,21.60
2017,08,22,11,42,21.60
2017,08,22,11,43,21.70
2017,08,22,11,44,21.70
2017,08,22,11,45,21.80
2017,08,22,11,46,21.80
2017,08,22,11,47,21.80
2017,08,22,11,48,21.80
2017,08,22,11,49,21.80
2017,08,22,11,50,21.80
2017,08,22,11,51,21.90
2017,08,22,11,52,21.90
2017,08,22,11,53,22.00
2017,08,22,11,54,22.00
2017,08,22,11,55,22.00
2017,08,22,11,56,22.00
2017,08,22,11,57,22.00
2017,08,22,11,58,21.90
2017,08,22,11,59,21.80
2017,08,22,12,00,21.80
2017,08,22,12,01,21.80
2017,08,22,12,02,21.80
2017,08,22,12,03,21.80
2017,08,22,12,04,21.80
2017,08,22,12,05,21.80
2017,08,22,12,06,21.80
2017,08,22,12,07,21.80
2017,08,22,12,08,21.80
2017,08,22,12,09,21.80
2017,08,22,12,10,21.90
2017,08,22,12,11,21.90
2017,08,22,12,12,21.90
2017,08,22,12,13,21.90
2017,08,22,12,14,21.90
2017,08,22,12,15,21.80
2017,08,22,12,16,21.90
2017,08,22,12,17,21.90
2017,08,22,12,18,21.90
2017,08,22,12,19,21.90
2017,08,22,12,20,21.90
2017,08,22,12,21,21.90
2017,08,22,12,22,22.00
2017,08,22,12,23,22.10
2017,08,22,12,24,22.10
2017,08,22,12,25,22.10
2017,08,22,12,26,22.10
2017,08,22,12,27,22.10
2017,08,22,12,28,22.20
2017,08,22,12,29,22.20
2017,08,22,12,30,22.20
2017,08,22,12,31,22.20
2017,08,22,12,32,22.10
2017,08,22,12,33,22.00
2017,08,22,12,34,22.00
2017,08,22,12,35,22.00
2017,08,22,12,36,22.10
2017,08,22,12,37,22.20
2017,08,22,12,38,22.30
2017,08,22,12,39,22.20
2017,08,22,12,40,22.30
2017,08,22,12,41,22.30
2017,08,22,12,42,22.30
2017,08,22,12,43,22.30
2017,08,22,12,44,22.30
2017,08,22,12,45,22.30
2017,08,22,12,46,22.40
2017,08,22,12,47,22.50
2017,08,22,12,48,22.50
2017,08,22,12,49,22.50
2017,08,22,12,50,22.50
2017,08,22,12,51,22.60
2017,08,22,12,52,22.70
2017,08,22,12,53,22.80
2017,08,22,12,54,22.90
2017,08,22,12,55,22.90
2017,08,22,12,56,22.80
2017,08,22,12,57,22.80
2017,08,22,12,58,22.80
2017,08,22,12,59,22.90
2017,08,22,13,00,23.00
2017,08,22,13,01,23.00
2017,08,22,13,02,23.10
2017,08,22,13,03,23.00
2017,08,22,13,04,22.90
2017,08,22,13,05,22.90
2017,08,22,13,06,22.90
2017,08,22,13,07,22.90
2017,08,22,13,08,22.90
2017,08,22,13,09,22.90
2017,08,22,13,10,22.90
2017,08,22,13,11,22.90
2017,08,22,13,12,22.90
2017,08,22,13,13,22.90
2017,08,22,13,14,22.90
2017,08,22,13,15,22.90
2017,08,22,13,16,23.00
2017,08,22,13,17,23.10
2017,08,22,13,18,23.10
2017,08,22,13,19,23.10
2017,08,22,13,20,23.10
2017,08,22,13,21,23.10
2017,08,22,13,22,23.10
2017,08,22,13,23,23.00
2017,08,22,13,24,23.00
2017,08,22,13,25,23.10
2017,08,22,13,26,23.20
2017,08,22,13,27,23.20
2017,08,22,13,28,23.20
2017,08,22,13,29,23.20
2017,08,22,13,30,23.10
2017,08,22,13,31,23.10
2017,08,22,13,32,23.10
2017,08,22,13,33,23.10
2017,08,22,13,34,23.00
2017,08,22,13,35,23.00
2017,08,22,13,36,22.90
2017,08,22,13,37,22.80
2017,08,22,13,38,22.80
2017,08,22,13,39,22.80
2017,08,22,13,40,22.80
2017,08,22,13,41,22.90
2017,08,22,13,42,22.90
2017,08,22,13,43,22.90
2017,08,22,13,44,22.90
2017,08,22,13,45,22.90
2017,08,22,13,46,22.90
2017,08,22,13,47,22.90
2017,08,22,13,48,22.90
2017,08,22,13,49,23.00
2017,08,22,13,50,23.10
2017,08,22,13,51,23.10
2017,08,22,13,52,23.10
2017,08,22,13,53,23.10
2017,08,22,13,54,23.10
2017,08,22,13,55,23.10
2017,08,22,13,56,23.10
2017,08,22,13,57,23.10
2017,08,22,13,58,23.10
2017,08,22,13,59,23.20
2017,08,22,14,00,23.20
2017,08,22,14,01,23.20
2017,08,22,14,02,23.20
2017,08,22,14,03,23.20
2017,08,22,14,04,23.20
2017,08,22,14,05,23.20
2017,08,22,14,06,23.10
2017,08,22,14,07,23.10
2017,08,22,14,08,23.20
2017,08,22,14,09,23.20
2017,08,22,14,10,23.30
2017,08,22,14,11,23.30
2017,08,22,14,12,23.30
2017,08,22,14,13,23.30
2017,08,22,14,14,23.40
2017,08,22,14,15,23.40
2017,08,22,14,16,23.40
2017,08,22,14,17,23.50
2017,08,22,14,18,23.50
2017,08,22,14,19,23.60
2017,08,22,14,20,23.60
2017,08,22,14,21,23.60
2017,08,22,14,22,23.70
2017,08,22,14,23,23.80
2017,08,22,14,24,23.80
2017,08,22,14,25,23.90
2017,08,22,14,26,23.90
2017,08,22,14,27,23.90
2017,08,22,14,28,24.00
2017,08,22,14,29,24.00
2017,08,22,14,30,24.10
2017,08,22,14,31,24.10
2017,08,22,14,32,24.10
2017,08,22,14,33,24.10
2017,08,22,14,34,24.20
2017,08,22,14,35,24.20
2017,08,22,14,36,24.30
2017,08,22,14,37,24.20
2017,08,22,14,38,24.20
2017,08,22,14,39,24.20
2017,08,22,14,40,24.20
2017,08,22,14,41,24.20
2017,08,22,14,42,24.20
2017,08,22,14,43,24.20
2017,08,22,14,44,24.30
2017,08,22,14,45,24.30
2017,08,22,14,46,24.30
2017,08,22,14,47,24.20
2017,08,22,14,48,24.10
2017,08,22,14,49,24.10
2017,08,22,14,50,24.00
2017,08,22,14,51,24.00
2017,08,22,14,52,24.10
2017,08,22,14,53,24.10
2017,08,22,14,54,24.10
2017,08,22,14,55,24.10
2017,08,22,14,56,24.10
2017,08,22,14,57,24.10
2017,08,22,14,58,24.10
2017,08,22,14,59,24.10
2017,08,22,15,00,24.10
2017,08,22,15,01,24.20
2017,08,22,15,02,24.30
2017,08,22,15,03,24.20
2017,08,22,15,04,24.20
2017,08,22,15,05,24.10
2017,08,22,15,06,24.10
2017,08,22,15,07,24.10
2017,08,22,15,08,24.10
2017,08,22,15,09,24.10
2017,08,22,15,10,24.20
2017,08,22,15,11,24.10
2017,08,22,15,12,24.20
2017,08,22,15,13,24.10
2017,08,22,15,14,24.10
2017,08,22,15,15,24.10
2017,08,22,15,16,24.00
2017,08,22,15,17,24.00
2017,08,22,15,18,24.00
2017,08,22,15,19,24.00
2017,08,22,15,20,24.10
2017,08,22,15,21,24.10
2017,08,22,15,22,24.00
2017,08,22,15,23,23.90
2017,08,22,15,24,23.90
2017,08,22,15,25,23.90
2017,08,22,15,26,24.00
2017,08,22,15,27,24.10
2017,08,22,15,28,24.10
2017,08,22,15,29,24.10
2017,08,22,15,30,24.20
2017,08,22,15,31,24.20
2017,08,22,15,32,24.30
2017,08,22,15,33,24.40
2017,08,22,15,34,24.50
2017,08,22,15,35,24.60
2017,08,22,15,36,24.70
2017,08,22,15,37,24.70
2017,08,22,15,38,24.80
2017,08,22,15,39,24.90
2017,08,22,15,40,25.00
2017,08,22,15,41,25.10
2017,08,22,15,42,25.20
2017,08,22,15,43,25.20
2017,08,22,15,44,25.30
2017,08,22,15,45,25.30
2017,08,22,15,46,25.30
2017,08,22,15,47,25.40
2017,08,22,15,48,25.30
2017,08,22,15,49,25.30
2017,08,22,15,50,25.30
2017,08,22,15,51,25.30
2017,08,22,15,52,25.30
2017,08,22,15,53,25.30
2017,08,22,15,54,25.40
2017,08,22,15,55,25.40
2017,08,22,15,56,25.40
2017,08,22,15,57,25.40
2017,08,22,15,58,25.40
2017,08,22,15,59,25.40
2017,08,22,16,00,25.40
2017,08,22,16,01,25.50
2017,08,22,16,02,25.50
2017,08,22,16,03,25.50
2017,08,22,16,04,25.60
2017,08,22,16,05,25.60
2017,08,22,16,06,25.70
2017,08,22,16,07,25.80
2017,08,22,16,08,25.90
2017,08,22,16,09,25.90
2017,08,22,16,10,25.90
2017,08,22,16,11,26.00
2017,08,22,16,12,26.10
2017,08,22,16,13,26.10
2017,08,22,16,14,26.20
2017,08,22,16,15,26.20
2017,08,22,16,16,26.40
2017,08,22,16,17,26.50
2017,08,22,16,18,26.60
2017,08,22,16,19,26.60
2017,08,22,16,20,26.60
2017,08,22,16,21,26.70
2017,08,22,16,22,26.70
2017,08,22,16,23,26.70
2017,08,22,16,24,26.70
2017,08,22,16,25,26.70
2017,08,22,16,26,26.70
2017,08,22,16,27,26.80
2017,08,22,16,28,26.80
2017,08,22,16,29,26.80
2017,08,22,16,30,26.80
2017,08,22,16,31,26.80
2017,08,22,16,32,26.90
2017,08,22,16,33,27.00
2017,08,22,16,34,27.10
2017,08,22,16,35,27.20
2017,08,22,16,36,27.30
2017,08,22,16,37,27.50
2017,08,22,16,38,27.60
2017,08,22,16,39,27.70
2017,08,22,16,40,27.80
2017,08,22,16,41,27.80
2017,08,22,16,42,27.90
2017,08,22,16,43,28.00
2017,08,22,16,44,28.10
2017,08,22,16,45,28.20
2017,08,22,16,46,28.30
2017,08,22,16,47,28.30
2017,08,22,16,48,28.30
2017,08,22,16,49,28.30
2017,08,22,16,50,28.30
2017,08,22,16,51,28.20
2017,08,22,16,52,28.20
2017,08,22,16,53,28.20
2017,08,22,16,54,28.30
2017,08,22,16,55,28.50
2017,08,22,16,56,28.50
2017,08,22,16,57,28.60
2017,08,22,16,58,28.70
2017,08,22,16,59,28.80
2017,08,22,17,00,28.90
2017,08,22,17,01,28.90
2017,08,22,17,02,29.00
2017,08,22,17,03,29.00
2017,08,22,17,04,29.10
2017,08,22,17,05,29.10
2017,08,22,17,06,29.10
2017,08,22,17,07,29.10
2017,08,22,17,08,29.10
2017,08,22,17,09,29.10
2017,08,22,17,10,29.20
2017,08,22,17,11,29.20
2017,08,22,17,12,29.10
2017,08,22,17,13,29.00
2017,08,22,17,14,28.80
2017,08,22,17,15,28.60
2017,08,22,17,16,28.40
2017,08,22,17,17,28.10
2017,08,22,17,18,27.90
2017,08,22,17,19,27.80